TimeAKST,TemperatureF,Dew PointF,Humidity,Sea Level PressureIn,VisibilityMPH,Wind Direction,Wind SpeedMPH,Gust SpeedMPH,PrecipitationIn,Events,Conditions,WindDirDegrees,DateUTC
12:56 AM,-9.9,-15.0,78,29.87,-9999.0,NE,29.9,35.7,0.00,Snow,Light Snow,50,2013-02-14 09:56:00
1:13 AM,-9.4,-14.8,77,29.84,0.2,NE,33.4,38.0,0.00,Snow,Heavy Snow,50,2013-02-14 10:13:00
1:26 AM,-9.4,-16.6,71,29.85,0.5,NE,31.1,38.0,0.00,Snow,Snow,50,2013-02-14 10:26:00
1:56 AM,-10.8,-15.9,78,29.86,0.5,NE,31.1,35.7,0.00,Snow,Snow,50,2013-02-14 10:56:00
2:56 AM,-11.2,-16.6,77,29.84,0.5,NE,28.8,-,N/A,,Overcast,50,2013-02-14 11:56:00
6:28 AM,-11.2,-16.6,77,29.83,0.5,NE,29.9,-,0.00,Snow,Snow,40,2013-02-14 15:28:00
6:56 AM,-11.9,-17.0,78,29.85,0.5,NE,31.1,-,0.00,,Overcast,40,2013-02-14 15:56:00
7:56 AM,-11.9,-17.9,75,29.86,0.5,NE,24.2,-,0.00,Snow,Snow,50,2013-02-14 16:56:00
8:56 AM,-13.0,-17.9,79,29.86,-9999.0,NE,25.3,29.9,0.00,Snow,Light Snow,40,2013-02-14 17:56:00
9:05 AM,-13.0,-18.4,77,29.85,0.5,NE,20.7,-,0.00,Snow,Snow,50,2013-02-14 18:05:00
9:56 AM,-13.9,-18.9,78,29.85,0.2,NE,28.8,-,0.00,Snow,Heavy Snow,50,2013-02-14 18:56:00
10:09 AM,-14.8,-20.2,77,29.83,0.2,NE,32.2,36.8,0.00,Snow,Heavy Snow,40,2013-02-14 19:09:00
10:56 AM,-15.0,-19.8,79,29.86,0.2,NE,25.3,33.4,0.00,,Haze,50,2013-02-14 19:56:00
11:56 AM,-16.6,-20.2,84,29.86,0.2,NE,24.2,-,N/A,,Haze,50,2013-02-14 20:56:00
12:56 PM,-15.9,-22.0,74,29.88,0.2,NE,24.2,31.1,0.00,Snow,Heavy Snow,50,2013-02-14 21:56:00
1:14 PM,-16.6,-22.0,76,29.86,0.5,NE,26.5,-,0.00,,Haze,50,2013-02-14 22:14:00
1:40 PM,-16.6,-22.0,76,29.85,0.5,NE,28.8,-,0.00,Snow,Snow,50,2013-02-14 22:40:00
1:56 PM,-15.9,-22.0,74,29.87,0.2,NE,28.8,35.7,0.00,Snow,Heavy Snow,50,2013-02-14 22:56:00
2:15 PM,-16.6,-22.0,76,29.86,0.5,NE,27.6,34.5,0.00,Snow,Snow,50,2013-02-14 23:15:00
2:34 PM,-16.6,-22.0,76,29.86,0.5,NE,26.5,-,0.00,Snow,Snow,50,2013-02-14 23:34:00
2:56 PM,-16.6,-23.8,70,29.85,0.5,NE,29.9,-,N/A,Snow,Snow,40,2013-02-14 23:56:00
3:35 PM,-16.6,-23.8,70,29.85,0.2,NE,28.8,-,0.00,Snow,Heavy Snow,40,2013-02-15 00:35:00
3:44 PM,-16.6,-23.8,70,29.85,0.5,NE,29.9,-,0.00,Snow,Snow,50,2013-02-15 00:44:00
3:56 PM,-17.0,-22.9,74,29.87,0.2,NE,28.8,-,0.00,Snow,Heavy Snow,50,2013-02-15 00:56:00
4:04 PM,-16.6,-23.8,70,29.86,0.5,NE,27.6,-,0.00,Snow,Snow,50,2013-02-15 01:04:00
4:22 PM,-16.6,-23.8,70,29.86,0.2,NE,25.3,-,0.00,Snow,Heavy Snow,50,2013-02-15 01:22:00
4:29 PM,-16.6,-23.8,70,29.86,0.2,NE,24.2,31.1,0.00,Snow,Heavy Snow,50,2013-02-15 01:29:00
4:40 PM,-16.6,-23.8,70,29.85,0.2,NE,28.8,35.7,0.00,Snow,Heavy Snow,50,2013-02-15 01:40:00
4:56 PM,-17.0,-22.9,74,29.88,0.5,NE,27.6,-,0.00,,Haze,50,2013-02-15 01:56:00
5:00 PM,-16.6,-23.8,70,29.86,0.8,NE,25.3,-,0.00,Snow,Light Snow,50,2013-02-15 02:00:00
5:30 PM,-16.6,-23.8,70,29.87,0.5,NE,26.5,-,0.00,,Haze,50,2013-02-15 02:30:00
5:56 PM,-16.6,-23.8,70,29.87,0.5,NE,24.2,-,N/A,,Haze,50,2013-02-15 02:56:00
6:04 PM,-18.4,-23.8,76,29.87,0.5,NE,25.3,-,0.00,Snow,Snow,50,2013-02-15 03:04:00
6:16 PM,-18.4,-23.8,76,29.87,0.5,NE,26.5,-,0.00,Snow,Snow,50,2013-02-15 03:16:00
6:25 PM,-18.4,-23.8,76,29.87,0.5,NE,24.2,-,0.00,,Haze,50,2013-02-15 03:25:00
6:36 PM,-18.4,-23.8,76,29.88,0.5,NE,24.2,-,0.00,,Haze,50,2013-02-15 03:36:00
6:40 PM,-18.4,-23.8,76,29.88,0.8,NE,23.0,-,0.00,,Haze,50,2013-02-15 03:40:00
6:56 PM,-17.9,-24.0,74,29.90,1.0,NE,26.5,-,0.00,,Haze,50,2013-02-15 03:56:00
7:17 PM,-18.4,-23.8,76,29.89,1.2,NE,20.7,-,N/A,,Haze,50,2013-02-15 04:17:00
7:28 PM,-18.4,-23.8,76,29.89,1.0,NE,23.0,-,N/A,,Haze,50,2013-02-15 04:28:00
7:35 PM,-18.4,-23.8,76,29.90,1.2,NE,20.7,-,N/A,,Haze,50,2013-02-15 04:35:00
7:56 PM,-18.9,-24.9,74,29.92,1.5,NE,21.9,-,N/A,,Haze,50,2013-02-15 04:56:00
8:16 PM,-18.4,-25.6,70,29.91,-9999.0,NE,20.7,-,N/A,,Overcast,50,2013-02-15 05:16:00
8:56 PM,-18.9,-24.9,74,29.93,-9999.0,NE,23.0,-,N/A,,Overcast,50,2013-02-15 05:56:00
9:23 PM,-18.4,-25.6,70,29.92,-9999.0,NE,21.9,-,N/A,,Overcast,50,2013-02-15 06:23:00
9:56 PM,-18.9,-24.9,74,29.95,-9999.0,NE,21.9,-,N/A,,Mostly Cloudy,50,2013-02-15 06:56:00
10:20 PM,-18.4,-25.6,70,29.94,-9999.0,NE,19.6,-,N/A,,Overcast,50,2013-02-15 07:20:00
10:56 PM,-18.9,-24.9,74,29.96,-9999.0,NE,21.9,-,N/A,,Mostly Cloudy,50,2013-02-15 07:56:00
11:56 PM,-18.9,-24.9,74,29.96,-9999.0,NE,21.9,-,N/A,,Mostly Cloudy,50,2013-02-15 08:56:00